Regional Weather Roundup
Issued by NWS

Home | Current Version | Previous Version | Graphics & Text | Print | Product List | Glossary On
Versions: 1 2 3 4 5 6 7 8 9 10 11 12 13 14 15 16 17 18 19 20 21 22 23 24 25 26 27 28 29 30 31 32 33 34 35 36 37 38 39 40 41 42 43 44 45 46 47 48 49 50
000
ASUS43 KOAX 281710
RWRNE

WEATHER ROUNDUP FOR NEBRASKA
NATIONAL WEATHER SERVICE OMAHA NE
1100 AM CST SAT FEB 28 2015

NOTES: SATELLITE DATA IS BEING USED TO AUGMENT CLOUD COVER ABOVE
       12000 FEET.
       "FAIR" INDICATES FEW OR NO CLOUDS BELOW 12,000 FEET WITH NO
       SIGNIFICANT WEATHER AND/OR OBSTRUCTIONS TO VISIBILITY.

  * THESE STATIONS DO NOT REPORT WEATHER SUCH AS RAIN...SNOW OR FOG.

NEZ001>004-019>022-054>056-281800-
NEBRASKA PANHANDLE

CITY           SKY/WX    TMP DP  RH WIND       PRES   REMARKS
SCOTTSBLUFF    SUNNY     20   9  62 W6        30.08R WCI  12
ALLIANCE       SUNNY     19   8  62 CALM      30.07R
CHADRON        SUNNY     21  10  62 NE6       30.12S WCI  13
KIMBALL        SUNNY     16  10  75 NE7       29.99S WCI   7
SIDNEY         CLOUDY    17  10  74 S8        30.07R WCI   7
$$

NEZ057>060-069>072-079>082-281800-
SOUTHWEST NEBRASKA

CITY           SKY/WX    TMP DP  RH WIND       PRES   REMARKS
NORTH PLATTE   CLOUDY    20   9  62 S13       30.20F WCI   7
IMPERIAL         N/A     18   7  62 S10       30.15S WCI   6
LEXINGTON      CLOUDY    22  11  62 S10       30.26F WCI  11
MCCOOK         CLOUDY    22  10  60 S13       30.23F WCI  10
OGALLALA       PTSUNNY   20  12  69 S8G16     30.14F WCI  10
$$

NEZ005>010-023>029-035>040-094-281800-
NORTH CENTRAL NEBRASKA

CITY           SKY/WX    TMP DP  RH WIND       PRES   REMARKS
VALENTINE      SUNNY     24   9  52 SW18      30.16S WCI  10
AINSWORTH      SUNNY     22  10  59 SW17G23   30.18S WCI   8
BROKEN BOW     CLOUDY    20  10  65 S18G24    30.24F WCI   5
O`NEILL        MOSUNNY   22  10  59 S14       30.26S WCI  10
ORD            CLOUDY    19   8  62 S16       30.29S WCI   4
THEDFORD       FLURRIES  20  11  66 SW14G22   30.18S WCI   7
$$

NEZ041-046>049-061>064-073>077-083>087-281800-
SOUTH CENTRAL NEBRASKA

CITY           SKY/WX    TMP DP  RH WIND       PRES   REMARKS
GRAND ISLAND   CLOUDY    18   9  68 SW15      30.36S WCI   4
AURORA         CLOUDY    19  11  70 S12G17    30.36F WCI   6
HASTINGS       LGT SNOW  16  11  80 S9        30.34F WCI   4
HEBRON         LGT SNOW  18  12  79 S8        30.42S WCI   7
HOLDREGE       LGT SNOW  16  11  80 S12       30.29F WCI   3
KEARNEY *      MOSUNNY   19   9  63 S15       30.31F WCI   5
YORK           LGT SNOW  18  14  86 S14       30.39F WCI   4
$$

NEZ011>018-030>034-042>045-281800-
NORTHEAST NEBRASKA

CITY           SKY/WX    TMP DP  RH WIND       PRES   REMARKS
NORFOLK        PTSUNNY   20  10  65 S17G24    30.36S WCI   5
ALBION         CLOUDY    20   9  62 S16       30.34S WCI   6
BLAIR          CLOUDY    20  10  64 S13       30.43F WCI   8
COLUMBUS *     CLOUDY    19   3  49 S12       30.41S WCI   7
FREMONT        CLOUDY    22  11  63 S12       30.44F WCI  10
WAYNE          PTSUNNY   20  11  67 S17       30.39F WCI   5
$$

NEZ050>053-065>068-078-088>093-281800-
SOUTHEAST NEBRASKA

CITY           SKY/WX    TMP DP  RH WIND       PRES   REMARKS
LINCOLN        LGT SNOW  19  13  77 S12       30.46S WCI   7
OMAHA EPPLEY   PTSUNNY   19   8  62 S13       30.48F WCI   6
BEATRICE       LGT SNOW  18  13  83 S8        30.44S WCI   7
FALLS CITY     LGT SNOW  20  14  77 S8        30.49F WCI  10
NEBRASKA CITY  LGT SNOW  21  10  64 S14       30.47F WCI   8
PLATTSMOUTH    PTSUNNY   19   8  62 S13       30.47S WCI   7
$$

NEZ044-045-051>053-067-281800-
OMAHA AREA

CITY           SKY/WX    TMP DP  RH WIND       PRES   REMARKS
OMAHA EPPLEY   PTSUNNY   19   8  62 S13       30.48F WCI   6
BLAIR          CLOUDY    20  10  64 S13       30.43F WCI   8
FREMONT        CLOUDY    22  11  63 S12       30.44F WCI  10
MILLARD        MOSUNNY   20   9  63 S10       30.47F WCI   9
OFFUTT AFB     MOSUNNY   20   9  63 S12       30.47F WCI   7
PLATTSMOUTH    PTSUNNY   19   8  62 S13       30.47S WCI   7
WAHOO          PTSUNNY   21   9  60 S13       30.45S WCI   8
$$


USA.gov is the U.S. government's official web portal to all federal, state and local government web resources and services.